STARLINK-32699, 62482

Orbit data source: Space-Track

STARLINK-32699, 62482 is a payload satellite owned by SpaceX/Seattle (US) in LEO that was launched on Tue, 31 Dec 2024 UTC via an FALCON 9 launch vehicle from the Air Force Eastern Test Range (AFETR). Payloads include a variety of satellites, spacecraft, and rockets equipped with specific instruments for various scientific and technological missions. These include communications satellites like Starlink; space stations such as the ISS; scientific satellites like the Hubble; Earth observation satellites from companies like Planet Labs, Umbra, and HawkEye 360; GPS; miniature CubeSats for education and research; and military/defense satellites.

Loading next visibility...
STARLINK-32699 details
Identifier
62482, 2024-254W
Orbit
LEO
Last TLE update18 hours ago
Origin
Flag of USSpaceX/Seattle (US)
ManufacturerSpaceX/Seattle
MissionOperational Commercial Communications
Bus & MotorSTARLINK V2M, Unknown motor
Mass730 kg wet, ~700 kg dry
Launch date (UTC)
2024-12-31 (1 month ago)
Launch vehicle
FALCON 9
Launch site
Air Force Eastern Test Range (AFETR)
Object type
Payload
Rocket body
Debris
Shape & HBRBox + 2 Pan, 29 m
Radar Cross Section33.884 m², Large (>1 m²)

Expand to show TLE details & history

TLE from 18 hours ago
0 STARLINK-32699
1 62482U 24254W   25035.50240284  .00004215  00000-0  10818-3 0  9992
2 62482  43.0007 108.7357 0001057 275.9176  84.1560 15.40676357  6553
Epoch: 2025-02-04T12:03Z
Definitive object data (Epoch: 2025-02-04T12:03:27.605Z)
Latitude-0.00002°
Longitude152.96389°
Altitude443.813 km
Speed7.648 km/s
True Right ascension07h 14m 56s
True Declination0° 00' 00"
Sunlit
Object was in full shadow at TLE epoch
Visualization TLE readout
Latitude-28.32726°
Longitude3.71049°
Altitude451.073 km
Speed7.642 km/s
Apparent Right ascension20h 47m 41s
Apparent Declination-34° 02' 14"
Sunlit
Object is in daylight
Visualization observer readout
Local Sidereal Time08:10:29
Azimuth305.481° NW
Elevation-80.536°
Doppler factor1
Orbital elements
Apogee altitude446.789 km
Perigee altitude445.347 km
Semi-major axis6,824.205 km
Eccentricity0.0001057
Inclination43.0007°
RAAN108.7357°
Arg. of periapsis275.9176°
True anomaly84.16805°
Mean anomaly84.156°
Eccentric anomaly84.16202°
Mean motion3.85004 °/min
BSTAR0.00010818
Orbital period93.51 mins
Loading maneuver chart data...
Loading historical data...
Loading historical data...
Loading historical data...
Loading historical data...
Loading historical data...
Loading historical data...
Loading historical data...

STARLINK-32699 Visibility forecast

Observer location: undefined°, undefined

Span
Click to sort rows by Start time (UTC) header in descending order
Start Az.
Max El. time (UTC)
Max El. Az.
Max El.
End time (UTC)
End Az.
5 mins2025-02-05 08:31:22.174Z231.046° WSW2025-02-05 08:33:22.174Z182.08° SSW39.724°2025-02-05 08:36:22.174Z78.715° E
5 mins2025-02-05 10:09:22.174Z279.45° WNW2025-02-05 10:11:22.174Z323.227° NNW37.18°2025-02-05 10:14:22.174Z67.548° E
5 mins2025-02-05 11:48:22.174Z298.552° NW2025-02-05 11:50:22.174Z34.382° NE40.361°2025-02-05 11:53:22.174Z91.628° ESE
5 mins2025-02-05 13:26:22.174Z266.288° W2025-02-05 13:28:22.174Z195.781° SSW33.577°2025-02-05 13:31:22.174Z136.145° SSE
|